SCP
0 0 0 0 0 0 0 0 0 0 0 0 0 0 0 0 0 0 0 0 0 0 0 0 0 0 0 0 0 0 0 0 0 0 0 0 0 0 0 0 0 0 0 0
0 0 0 0 0 0 0 0 0 0 0 0 0 0 0 0 0 0 0 0 0 0 0 0 0 0 0 0 0 0 0 0 0 0 0 0 0 0 0 0 0 0 0 0
0 0 0 0 0 0 0 0 0 0 0 0 0 0 0 0 0 0 0 0 0 0 0 0 0 0 0 0 0 0 0 0 0 0 0 0 0 0 0 0 0 0 0 0
0 0 0 0 0 0 0 0 0 0 0 0 0 0 0 0 0 0 0 0 0 0 0 0 0 0 0 0 0 0 0 0 0 0 0 0 0 0 0 0 0 0 0 0
0 0 0 0 0 0 0 0 0 0 0 0 0 0 0 0 0 0 0 0 0 0 0 0 0 0 0 0 0 0 0 0 0 0 0 0 0 0 0 0 0 0 0 0
0 0 0 0 0 0 0 0 0 0 0 0 0 0 0 0 0 0 0 0 0 0 0 0 0 0 0 0 0 0 0 0 0 0 0 0 0 0 0 0 0 0 0 0
0 0 0 0 0 0 0 0 0 0 0 0 0 0 0 0 0 0 0 0 0 0 0 0 0 0 0 0 0 0 0 0 0 0 0 0 0 0 0 0 0 0 0 0
0 0 0 0 0 0 0 0 0 0 0 0 0 0 0 0 0 0 0 0 0 0 0 0 0 0 0 0 0 0 0 0 0 0 0 0 0 0 0 0 0 0 0 0
0 0 0 0 0 0 0 0 0 0 0 0 0 0 0 0 0 0 0 0 0 0 0 0 0 0 0 0 0 0 0 0 0 0 0 0 0 0 0 0 0 0 0 0
0 0 0 0 0 0 0 0 0 0 0 0 0 0 0 0 0 0 0 0 0 0 0 0 0 0 0 0 0 0 0 0 0 0 0 0 0 0 0 0 0 0 0 0
0 0 0 0 0 0 0 0 0 0 0 0 0 0 0 0 0 0 0 0 0 0 0 0 0 0 -0 -0 0 0 0 0 0 0 0 -0 0 0 0 0 0 0 0 0
0 0 0 0 0 0 0 0 0 0 0 0 0 0 0 0 0 0 0 0 0 0 0 0 -0 -0 -0 -0 0 0 0 0 0 0 0 0 0 0 0 0 0 0 0 0
0 0 0 0 0 0 0 0 0 0 0 0 0 0 0 0 0 0 0 0 0 -0 0 -0 -0 -0 -0 0 0 0 0 0 0 0 0 0 0 0 0 0 0 0 0 0
0 0 0 0 0 0 0 0 0 0 0 0 0 0 0 0 0 0 0 0 0 0 0 0 -0 -0 -0 -0 0 0 0 0 0 0 0 0 0 0 0 0 0 0 0 0
0 0 0 0 0 0 0 0 0 0 0 0 0 0 0 0 0 0 0 0 0 0 0 0 0 0 0 0 0 0 0 -0 0 0 0 0 0 0 0 0 0 -0 -0 0
0 0 0 0 0 0 0 0 0 0 0 0 0 0 -0 0 0 0 0 0 0 0 0 0 0 0 0 0 0 0 0 0 -0 -0 0 0 0 0 0 0 0 0 0 0
0 0 0 0 0 0 0 0 0 0 0 0 0 0 0 0 0 0 -0 -0 -0 0 0 0 0 0 0 0 0 0 0 -0 -0 -0 -0 -0 0 0 0 -0 -0 0 0 0
0 0 0 0 0 0 0 0 0 0 0 0 0 0 0 0 0 -0 0 -0 0 0 0 0 0 0 0 0 0 0 -0 -0 -0 -0 -0 0 0 0 0 0 0 0 0 0
0 0 0 0 0 0 0 0 0 0 0 0 0 0 0 0 0 0 0 0 0 -0 0 0 0 0 0 0 0 0 0 0 0 0 0 0 0 0 0 0 0 0 0 0
0 0 0 0 0 0 0 0 0 0 0 0 0 0 0 0 0 0 0 0 0 0 0 0 0 0 0 0 0 0 0 0 0 0 0 0 0 0 0 0 0 0 0 0
0 0 0 0 0 0 0 0 0 0 0 0 0 0 0 0 0 0 0 0 0 0 0 0 0 0 0 0 0 0 0 0 0 0 0 0 0 0 0 0 -0 0 0 0
0 0 0 0 0 0 0 0 0 0 0 0 0 0 0 0 0 0 0 0 0 0 0 0 0 0 0 0 0 0 0 0 0 0 0 0 0 0 0 0 0 0 0 0
-0 0 0 -0 -0 0 -0 0 0 0 0 0 0 0 0 0 0 0 0 0 0 0 0 0 0 0 0 0 0 0 0 0 0 0 0 0 0 0 0 0 0 0 0 0
0 0 0 -0 0 -0 0 0 0 0 0 0 0 0 0 0 0 0 0 0 0 0 0 0 0 0 0 0 0 0 0 0 0 0 0 0 0 0 0 0 0 0 0 0
0 0 0 0 -0 0 0 0 0 0 0 0 0 0 0 0 0 0 0 0 0 0 0 0 0 0 0 0 0 0 0 0 0 0 0 0 0 0 0 0 0 0 0 0
0 0 0 0 0 0 0 0 0 0 0 0 0 0 0 0 0 0 0 0 0 0 0 0 0 0 0 0 0 0 0 0 0 0 0 0 0 0 0 0 0 0 0 0
Wind_Speed_500mb
3 7 14 17 14 7 12 9 2 2 1 2 6 10 19 16 17 23 24 24 31 34 33 36 38 36 37 38 39 39 45 45 48 50 53 56 59 59 60 62 62 61 60 59
7 7 9 9 12 15 13 8 6 5 4 3 3 11 18 9 18 23 31 35 36 37 33 29 27 24 27 33 41 40 36 39 43 49 55 56 58 58 57 56 56 53 54 55
10 2 11 10 6 12 8 13 10 4 4 8 6 11 11 5 6 21 30 24 26 29 30 30 28 25 19 22 27 37 37 36 35 33 39 47 54 60 60 60 56 54 51 51
4 2 8 5 7 8 9 14 13 9 5 5 5 8 9 7 11 27 39 45 40 36 33 34 32 28 25 24 21 15 26 29 29 32 33 37 43 49 51 56 56 56 56 55
5 10 7 8 8 11 6 10 13 8 8 5 5 4 12 6 12 19 29 50 52 51 51 51 46 37 31 25 23 20 14 11 16 22 27 32 38 42 44 48 51 51 52 54
5 4 5 7 4 5 15 11 13 9 7 2 8 9 7 6 6 5 18 42 52 56 55 56 57 48 42 34 26 20 17 16 15 14 15 18 25 30 35 38 43 44 47 49
5 3 2 4 12 7 4 11 5 4 2 9 3 4 3 5 6 6 17 38 50 54 56 57 60 60 55 50 43 36 31 27 24 19 16 15 16 20 25 29 36 40 43 46
8 3 10 4 5 13 9 6 9 12 8 5 2 7 1 2 11 14 29 36 45 52 52 52 52 51 51 50 46 42 41 40 38 35 33 29 24 21 20 22 24 27 32 35
8 3 5 7 4 4 6 5 7 12 5 5 5 6 9 7 7 21 39 47 49 49 52 50 45 47 46 44 43 41 37 36 36 34 32 31 31 31 29 25 26 29 33 35
3 8 7 4 5 9 4 9 7 5 6 4 4 5 11 9 12 15 34 42 47 48 49 50 47 44 41 40 39 37 37 38 38 35 33 33 33 34 36 36 34 35 38 41
5 6 5 5 7 5 4 3 8 6 5 7 6 8 9 18 9 8 16 33 43 47 50 46 43 43 41 38 38 39 37 39 40 41 40 38 36 35 36 37 39 41 42 43
4 6 6 5 6 6 4 5 5 6 4 1 2 4 9 13 8 9 21 34 39 39 44 44 41 44 45 43 42 42 41 40 40 40 41 41 41 40 42 44 45 46 48 50
5 4 5 8 8 9 8 4 7 6 4 8 7 3 10 7 11 27 35 40 43 46 48 43 39 42 41 39 39 38 37 36 35 36 37 38 40 41 43 47 51 54 57 58
6 6 5 7 5 4 5 4 7 7 4 4 5 6 6 8 15 26 33 41 45 48 49 46 42 40 40 41 40 38 39 41 44 45 46 46 46 48 48 49 53 57 59 61
7 8 6 5 8 3 1 3 6 7 4 6 4 6 5 11 10 16 28 37 41 44 41 42 37 48 49 47 43 44 50 54 55 54 54 53 54 56 58 59 59 60 60 60
6 3 5 8 12 11 3 2 5 5 3 10 6 14 8 8 10 16 29 30 29 39 42 42 44 50 53 54 53 54 58 60 62 61 60 57 55 56 57 58 59 62 63 60
7 8 6 6 8 9 9 9 5 5 6 8 9 9 10 6 13 23 28 16 23 44 51 51 51 56 59 58 58 59 62 65 65 63 61 61 61 59 58 57 55 54 54 55
6 7 6 3 8 5 10 4 1 9 9 13 15 6 9 7 21 20 13 13 38 54 53 51 53 59 60 60 59 59 60 63 64 62 60 58 57 56 56 55 55 54 52 50
7 8 6 7 5 9 9 5 9 9 8 4 5 6 19 32 34 8 12 26 42 45 49 51 53 54 56 60 60 62 62 62 60 60 60 61 61 60 58 55 52 50 47 44
7 11 8 6 9 10 11 3 2 9 8 5 14 13 24 27 18 7 29 47 50 46 45 41 48 50 52 54 59 59 56 56 58 60 59 58 57 56 53 52 49 46 44 42
6 6 9 3 1 14 16 18 5 10 9 17 6 35 32 8 22 43 54 49 49 47 45 47 49 49 51 52 49 53 56 57 56 54 51 49 47 44 43 42 44 42 40 39
11 11 6 3 4 13 19 12 13 9 10 13 32 45 32 44 54 53 53 51 50 49 44 40 40 41 44 49 51 49 49 47 45 42 40 39 38 38 38 37 36 35 35 35
3 11 8 16 12 10 36 18 24 8 30 31 27 31 44 52 57 52 49 47 44 42 41 41 42 42 44 45 45 43 40 37 33 32 31 31 31 31 30 30 30 30 30 29
8 14 6 5 14 41 44 40 40 44 42 23 32 42 43 43 40 43 45 44 41 39 38 38 39 39 39 37 34 31 30 30 31 30 28 27 28 28 29 29 30 30 30 30
12 19 11 10 29 42 52 50 33 22 23 34 44 38 31 39 44 43 42 39 38 39 38 37 35 30 23 20 22 26 28 28 28 29 30 30 33 36 35 33 35 35 32 30
23 13 9 12 28 22 31 34 27 29 39 45 34 35 37 40 41 40 40 39 36 32 27 20 14 10 12 15 16 19 24 27 31 34 39 40 41 40 39 39 32 31 34 32
Wind_Direction_500mb
235 110 207 194 159 134 134 111 203 252 90 144 201 268 281 300 299 298 296 301 294 304 311 318 307 294 284 280 278 279 267 265 264 264 263 263 266 270 272 274 275 274 273 274
60 218 200 135 150 127 113 126 214 282 3 121 63 280 280 268 269 281 297 313 327 325 333 338 333 310 288 284 271 266 272 269 273 269 266 268 274 275 277 278 277 277 277 277
149 213 161 152 157 139 151 155 173 172 5 44 349 306 333 15 350 26 37 40 30 19 12 14 10 0 330 312 297 264 258 261 269 275 273 270 268 271 274 278 285 290 289 287
145 356 142 149 166 149 179 176 149 137 82 228 11 275 302 334 10 45 33 46 44 42 38 31 27 26 19 11 1 315 271 272 272 268 268 272 276 277 282 284 284 283 284 284
214 163 144 136 201 165 220 155 143 124 107 73 323 125 271 331 76 36 29 53 57 55 52 48 40 36 31 26 20 16 8 329 297 287 284 281 282 286 289 290 291 292 290 290
153 107 122 176 107 127 151 98 54 61 99 336 227 177 294 47 341 21 32 43 51 52 50 50 48 49 46 39 34 29 16 9 358 350 344 333 319 312 306 305 302 301 298 296
156 99 132 147 88 30 68 99 50 31 16 222 304 106 153 352 77 84 34 34 44 47 47 45 42 43 44 43 41 44 46 47 40 29 13 356 335 323 317 315 312 312 309 307
134 327 181 179 168 173 188 153 150 177 197 199 35 199 147 168 88 50 51 49 46 45 44 41 39 37 35 34 39 43 44 45 41 37 33 27 25 18 6 351 340 332 326 322
125 126 348 40 33 90 198 180 162 109 50 69 195 98 26 261 315 35 38 41 38 37 35 35 31 27 26 25 24 21 19 14 12 10 5 1 355 350 346 343 340 337 333 330
137 106 17 340 148 51 117 158 73 13 134 223 290 245 179 176 29 15 19 25 28 29 29 29 25 19 16 14 13 10 6 1 0 357 353 349 343 333 327 324 322 323 325 325
120 87 317 51 25 142 52 89 52 115 115 158 164 258 166 149 131 68 16 30 26 24 22 17 18 15 11 6 1 360 358 356 353 353 353 351 348 343 334 324 320 318 319 320
332 108 88 96 320 338 65 106 124 116 194 113 104 281 119 134 83 33 34 23 19 18 11 8 4 2 1 2 0 360 357 352 352 349 345 344 342 338 332 328 327 324 321 319
193 54 77 6 2 358 80 94 100 104 103 195 153 257 178 98 17 18 14 5 3 358 358 0 358 358 357 356 355 354 352 352 350 345 341 337 335 335 332 331 329 326 320 316
76 100 155 159 163 129 131 166 144 153 129 177 221 173 205 346 348 358 355 350 347 348 351 349 353 357 356 351 349 349 350 348 345 341 337 334 333 332 331 328 325 321 318 315
77 107 90 40 3 36 186 154 172 176 177 168 206 282 268 291 299 328 337 339 341 349 3 0 358 351 348 345 345 343 342 341 339 336 333 330 328 326 324 323 322 319 316 314
26 135 94 5 3 23 277 276 218 225 223 277 270 285 220 88 335 321 323 328 359 1 356 350 345 342 339 336 332 328 329 329 329 328 326 325 324 323 322 320 320 320 317 316
64 118 63 263 347 350 351 234 193 162 184 172 224 213 72 12 348 337 331 331 354 351 341 333 329 327 325 322 319 318 319 322 322 322 322 322 323 324 325 326 324 322 320 318
102 79 57 180 12 26 248 263 285 246 250 237 262 18 27 358 331 329 340 351 333 322 317 313 307 309 309 309 310 312 315 318 319 320 321 322 324 327 329 329 328 327 327 326
29 106 81 120 174 290 313 218 159 166 275 267 256 61 356 350 334 357 351 320 314 313 316 305 303 306 305 305 309 313 317 320 321 322 324 325 327 329 331 331 333 333 332 331
72 64 107 74 129 200 235 253 359 82 301 294 127 12 349 350 329 310 320 318 313 310 307 300 301 298 297 301 306 310 314 316 319 320 322 325 327 328 331 333 336 338 336 335
68 5 134 135 184 290 250 223 352 85 236 186 284 324 325 264 279 305 316 315 313 313 310 306 302 299 301 305 310 312 315 317 319 321 323 324 327 330 333 338 339 341 339 335
164 143 198 107 102 281 182 125 167 193 167 290 309 311 306 308 308 312 314 314 313 311 310 308 307 308 309 311 314 317 319 321 323 327 332 335 337 337 338 338 336 334 336 338
296 185 179 181 212 250 198 221 211 253 307 302 301 306 309 305 306 309 312 314 314 313 312 311 311 312 313 313 315 318 322 326 330 330 330 331 333 335 338 339 339 342 344 347
245 190 213 97 245 243 250 250 261 278 285 276 288 298 298 297 300 300 303 304 306 308 309 310 309 310 313 318 325 331 335 337 338 337 337 336 334 332 331 332 332 333 337 342
205 163 199 256 267 269 271 265 272 271 271 290 297 295 294 297 300 300 303 303 303 305 308 311 314 320 330 341 346 344 341 340 340 337 336 335 333 330 332 336 333 330 329 328
190 201 177 225 232 236 262 278 279 274 290 298 294 297 299 298 301 303 303 303 305 307 308 310 318 339 348 345 342 339 335 333 330 326 323 322 322 323 324 325 326 322 321 321
Wind_Speed_850mb
3 7 14 17 14 7 12 9 2 2 1 2 6 10 19 16 17 23 24 24 31 34 33 36 38 36 37 38 39 39 45 45 48 50 53 56 59 59 60 62 62 61 60 59
7 7 9 9 12 15 13 8 6 5 4 3 3 11 18 9 18 23 31 35 36 37 33 29 27 24 27 33 41 40 36 39 43 49 55 56 58 58 57 56 56 53 54 55
10 2 11 10 6 12 8 13 10 4 4 8 6 11 11 5 6 21 30 24 26 29 30 30 28 25 19 22 27 37 37 36 35 33 39 47 54 60 60 60 56 54 51 51
4 2 8 5 7 8 9 14 13 9 5 5 5 8 9 7 11 27 39 45 40 36 33 34 32 28 25 24 21 15 26 29 29 32 33 37 43 49 51 56 56 56 56 55
5 10 7 8 8 11 6 10 13 8 8 5 5 4 12 6 12 19 29 50 52 51 51 51 46 37 31 25 23 20 14 11 16 22 27 32 38 42 44 48 51 51 52 54
5 4 5 7 4 5 15 11 13 9 7 2 8 9 7 6 6 5 18 42 52 56 55 56 57 48 42 34 26 20 17 16 15 14 15 18 25 30 35 38 43 44 47 49
5 3 2 4 12 7 4 11 5 4 2 9 3 4 3 5 6 6 17 38 50 54 56 57 60 60 55 50 43 36 31 27 24 19 16 15 16 20 25 29 36 40 43 46
8 3 10 4 5 13 9 6 9 12 8 5 2 7 1 2 11 14 29 36 45 52 52 52 52 51 51 50 46 42 41 40 38 35 33 29 24 21 20 22 24 27 32 35
8 3 5 7 4 4 6 5 7 12 5 5 5 6 9 7 7 21 39 47 49 49 52 50 45 47 46 44 43 41 37 36 36 34 32 31 31 31 29 25 26 29 33 35
3 8 7 4 5 9 4 9 7 5 6 4 4 5 11 9 12 15 34 42 47 48 49 50 47 44 41 40 39 37 37 38 38 35 33 33 33 34 36 36 34 35 38 41
5 6 5 5 7 5 4 3 8 6 5 7 6 8 9 18 9 8 16 33 43 47 50 46 43 43 41 38 38 39 37 39 40 41 40 38 36 35 36 37 39 41 42 43
4 6 6 5 6 6 4 5 5 6 4 1 2 4 9 13 8 9 21 34 39 39 44 44 41 44 45 43 42 42 41 40 40 40 41 41 41 40 42 44 45 46 48 50
5 4 5 8 8 9 8 4 7 6 4 8 7 3 10 7 11 27 35 40 43 46 48 43 39 42 41 39 39 38 37 36 35 36 37 38 40 41 43 47 51 54 57 58
6 6 5 7 5 4 5 4 7 7 4 4 5 6 6 8 15 26 33 41 45 48 49 46 42 40 40 41 40 38 39 41 44 45 46 46 46 48 48 49 53 57 59 61
7 8 6 5 8 3 1 3 6 7 4 6 4 6 5 11 10 16 28 37 41 44 41 42 37 48 49 47 43 44 50 54 55 54 54 53 54 56 58 59 59 60 60 60
6 3 5 8 12 11 3 2 5 5 3 10 6 14 8 8 10 16 29 30 29 39 42 42 44 50 53 54 53 54 58 60 62 61 60 57 55 56 57 58 59 62 63 60
7 8 6 6 8 9 9 9 5 5 6 8 9 9 10 6 13 23 28 16 23 44 51 51 51 56 59 58 58 59 62 65 65 63 61 61 61 59 58 57 55 54 54 55
6 7 6 3 8 5 10 4 1 9 9 13 15 6 9 7 21 20 13 13 38 54 53 51 53 59 60 60 59 59 60 63 64 62 60 58 57 56 56 55 55 54 52 50
7 8 6 7 5 9 9 5 9 9 8 4 5 6 19 32 34 8 12 26 42 45 49 51 53 54 56 60 60 62 62 62 60 60 60 61 61 60 58 55 52 50 47 44
7 11 8 6 9 10 11 3 2 9 8 5 14 13 24 27 18 7 29 47 50 46 45 41 48 50 52 54 59 59 56 56 58 60 59 58 57 56 53 52 49 46 44 42
6 6 9 3 1 14 16 18 5 10 9 17 6 35 32 8 22 43 54 49 49 47 45 47 49 49 51 52 49 53 56 57 56 54 51 49 47 44 43 42 44 42 40 39
11 11 6 3 4 13 19 12 13 9 10 13 32 45 32 44 54 53 53 51 50 49 44 40 40 41 44 49 51 49 49 47 45 42 40 39 38 38 38 37 36 35 35 35
3 11 8 16 12 10 36 18 24 8 30 31 27 31 44 52 57 52 49 47 44 42 41 41 42 42 44 45 45 43 40 37 33 32 31 31 31 31 30 30 30 30 30 29
8 14 6 5 14 41 44 40 40 44 42 23 32 42 43 43 40 43 45 44 41 39 38 38 39 39 39 37 34 31 30 30 31 30 28 27 28 28 29 29 30 30 30 30
12 19 11 10 29 42 52 50 33 22 23 34 44 38 31 39 44 43 42 39 38 39 38 37 35 30 23 20 22 26 28 28 28 29 30 30 33 36 35 33 35 35 32 30
23 13 9 12 28 22 31 34 27 29 39 45 34 35 37 40 41 40 40 39 36 32 27 20 14 10 12 15 16 19 24 27 31 34 39 40 41 40 39 39 32 31 34 32
Wind_Direction_850mb
235 110 207 194 159 134 134 111 203 252 90 144 201 268 281 300 299 298 296 301 294 304 311 318 307 294 284 280 278 279 267 265 264 264 263 263 266 270 272 274 275 274 273 274
60 218 200 135 150 127 113 126 214 282 3 121 63 280 280 268 269 281 297 313 327 325 333 338 333 310 288 284 271 266 272 269 273 269 266 268 274 275 277 278 277 277 277 277
149 213 161 152 157 139 151 155 173 172 5 44 349 306 333 15 350 26 37 40 30 19 12 14 10 0 330 312 297 264 258 261 269 275 273 270 268 271 274 278 285 290 289 287
145 356 142 149 166 149 179 176 149 137 82 228 11 275 302 334 10 45 33 46 44 42 38 31 27 26 19 11 1 315 271 272 272 268 268 272 276 277 282 284 284 283 284 284
214 163 144 136 201 165 220 155 143 124 107 73 323 125 271 331 76 36 29 53 57 55 52 48 40 36 31 26 20 16 8 329 297 287 284 281 282 286 289 290 291 292 290 290
153 107 122 176 107 127 151 98 54 61 99 336 227 177 294 47 341 21 32 43 51 52 50 50 48 49 46 39 34 29 16 9 358 350 344 333 319 312 306 305 302 301 298 296
156 99 132 147 88 30 68 99 50 31 16 222 304 106 153 352 77 84 34 34 44 47 47 45 42 43 44 43 41 44 46 47 40 29 13 356 335 323 317 315 312 312 309 307
134 327 181 179 168 173 188 153 150 177 197 199 35 199 147 168 88 50 51 49 46 45 44 41 39 37 35 34 39 43 44 45 41 37 33 27 25 18 6 351 340 332 326 322
125 126 348 40 33 90 198 180 162 109 50 69 195 98 26 261 315 35 38 41 38 37 35 35 31 27 26 25 24 21 19 14 12 10 5 1 355 350 346 343 340 337 333 330
137 106 17 340 148 51 117 158 73 13 134 223 290 245 179 176 29 15 19 25 28 29 29 29 25 19 16 14 13 10 6 1 0 357 353 349 343 333 327 324 322 323 325 325
120 87 317 51 25 142 52 89 52 115 115 158 164 258 166 149 131 68 16 30 26 24 22 17 18 15 11 6 1 360 358 356 353 353 353 351 348 343 334 324 320 318 319 320
332 108 88 96 320 338 65 106 124 116 194 113 104 281 119 134 83 33 34 23 19 18 11 8 4 2 1 2 0 360 357 352 352 349 345 344 342 338 332 328 327 324 321 319
193 54 77 6 2 358 80 94 100 104 103 195 153 257 178 98 17 18 14 5 3 358 358 0 358 358 357 356 355 354 352 352 350 345 341 337 335 335 332 331 329 326 320 316
76 100 155 159 163 129 131 166 144 153 129 177 221 173 205 346 348 358 355 350 347 348 351 349 353 357 356 351 349 349 350 348 345 341 337 334 333 332 331 328 325 321 318 315
77 107 90 40 3 36 186 154 172 176 177 168 206 282 268 291 299 328 337 339 341 349 3 0 358 351 348 345 345 343 342 341 339 336 333 330 328 326 324 323 322 319 316 314
26 135 94 5 3 23 277 276 218 225 223 277 270 285 220 88 335 321 323 328 359 1 356 350 345 342 339 336 332 328 329 329 329 328 326 325 324 323 322 320 320 320 317 316
64 118 63 263 347 350 351 234 193 162 184 172 224 213 72 12 348 337 331 331 354 351 341 333 329 327 325 322 319 318 319 322 322 322 322 322 323 324 325 326 324 322 320 318
102 79 57 180 12 26 248 263 285 246 250 237 262 18 27 358 331 329 340 351 333 322 317 313 307 309 309 309 310 312 315 318 319 320 321 322 324 327 329 329 328 327 327 326
29 106 81 120 174 290 313 218 159 166 275 267 256 61 356 350 334 357 351 320 314 313 316 305 303 306 305 305 309 313 317 320 321 322 324 325 327 329 331 331 333 333 332 331
72 64 107 74 129 200 235 253 359 82 301 294 127 12 349 350 329 310 320 318 313 310 307 300 301 298 297 301 306 310 314 316 319 320 322 325 327 328 331 333 336 338 336 335
68 5 134 135 184 290 250 223 352 85 236 186 284 324 325 264 279 305 316 315 313 313 310 306 302 299 301 305 310 312 315 317 319 321 323 324 327 330 333 338 339 341 339 335
164 143 198 107 102 281 182 125 167 193 167 290 309 311 306 308 308 312 314 314 313 311 310 308 307 308 309 311 314 317 319 321 323 327 332 335 337 337 338 338 336 334 336 338
296 185 179 181 212 250 198 221 211 253 307 302 301 306 309 305 306 309 312 314 314 313 312 311 311 312 313 313 315 318 322 326 330 330 330 331 333 335 338 339 339 342 344 347
245 190 213 97 245 243 250 250 261 278 285 276 288 298 298 297 300 300 303 304 306 308 309 310 309 310 313 318 325 331 335 337 338 337 337 336 334 332 331 332 332 333 337 342
205 163 199 256 267 269 271 265 272 271 271 290 297 295 294 297 300 300 303 303 303 305 308 311 314 320 330 341 346 344 341 340 340 337 336 335 333 330 332 336 333 330 329 328
190 201 177 225 232 236 262 278 279 274 290 298 294 297 299 298 301 303 303 303 305 307 308 310 318 339 348 345 342 339 335 333 330 326 323 322 322 323 324 325 326 322 321 321